Regional Weather Roundup
Issued by NWS

Home | Current Version | Previous Version | Text Only | Print | Product List | Glossary Off
Versions: 1 2 3 4 5 6 7 8 9 10 11 12 13 14 15 16 17 18 19 20 21 22 23 24 25 26 27 28 29 30 31 32 33 34 35 36 37 38 39 40 41 42 43 44 45 46 47 48 49 50

000
ASUS43 KOAX 070902
RWRNE

WEATHER ROUNDUP FOR NEBRASKA
NATIONAL WEATHER SERVICE OMAHA NE
300 AM CST SUN FEB 07 2016

NOTES: SATELLITE DATA IS BEING USED TO AUGMENT CLOUD COVER ABOVE
       12000 FEET.
       "FAIR" INDICATES FEW OR NO CLOUDS BELOW 12,000 FEET WITH NO
       SIGNIFICANT WEATHER AND/OR OBSTRUCTIONS TO VISIBILITY.

  * THESE STATIONS DO NOT REPORT WEATHER SUCH AS RAIN...SNOW OR FOG.

NEZ001>004-019>022-054>056-071000-
NEBRASKA PANHANDLE

CITY           SKY/WX    TMP DP  RH WIND       PRES   REMARKS
SCOTTSBLUFF    PTCLDY    26  18  71 CALM      30.15R
ALLIANCE       PTCLDY    20  14  77 W14       30.10S WCI   7
CHADRON        CLOUDY    35  21  56 W13       30.13R WCI  26
SIDNEY         CLEAR     31  18  58 NW15      30.13S WCI  20
$$

NEZ057>060-069>072-079>082-071000-
SOUTHWEST NEBRASKA

CITY           SKY/WX    TMP DP  RH WIND       PRES   REMARKS
NORTH PLATTE   CLOUDY    28  22  78 W7        30.08R WCI  21
IMPERIAL       CLOUDY    33  22  63 NW13      30.11S WCI  24
MCCOOK         CLOUDY    35  26  69 W14       30.09F WCI  26
$$

NEZ005>010-023>029-035>040-094-071000-
NORTH CENTRAL NEBRASKA

CITY           SKY/WX    TMP DP  RH WIND       PRES   REMARKS
VALENTINE      CLOUDY    36  24  62 W14G24    30.02S WCI  27
AINSWORTH      CLEAR     36  24  61 W13G18    30.02R WCI  27
BROKEN BOW     CLEAR     37  24  59 NW22      30.03R WCI  26
ORD            PTCLDY    36  25  64 NW20G25   30.00R WCI  25
$$

NEZ041-046>049-061>064-073>077-083>087-071000-
SOUTH CENTRAL NEBRASKA

CITY           SKY/WX    TMP DP  RH WIND       PRES   REMARKS
GRAND ISLAND   PTCLDY    33  25  72 W12       30.01S WCI  24
HASTINGS       CLOUDY    34  26  72 NW12      30.01S WCI  25
$$

NEZ011>018-030>034-042>045-071000-
NORTHEAST NEBRASKA

CITY           SKY/WX    TMP DP  RH WIND       PRES   REMARKS
NORFOLK        CLEAR     36  25  64 W13       29.93R WCI  27
COLUMBUS *     CLOUDY    34  19  55 W9        29.96R WCI  26
FREMONT        CLOUDY    29  24  82 W8        29.94R WCI  21
TEKAMAH        CLOUDY    33  25  72 VRB3      29.92R
$$

NEZ050>053-065>068-078-088>093-071000-
SOUTHEAST NEBRASKA

CITY           SKY/WX    TMP DP  RH WIND       PRES   REMARKS
LINCOLN        CLOUDY    31  25  78 SW3       29.97R
OMAHA EPPLEY   CLOUDY    35  27  72 W3        29.93R
BEATRICE       CLOUDY    33  28  85 W7        29.98R WCI  26
FALLS CITY     CLOUDY    38  26  62 SW12      29.95F WCI  30
$$

NEZ044-045-051>053-067-071000-
OMAHA AREA

CITY           SKY/WX    TMP DP  RH WIND       PRES   REMARKS
OMAHA EPPLEY   CLOUDY    35  27  72 W3        29.93R
FREMONT        CLOUDY    29  24  82 W8        29.94R WCI  21
OFFUTT AFB     CLOUDY    33  27  79 W8        29.93R WCI  26
WAHOO          FAIR      33  27  76 NW10      29.94S WCI  25
$$



USA.gov is the U.S. government's official web portal to all federal, state and local government web resources and services.